| time (UTC) | temp F | wind direction | speed MPH | gust MPH | rain 1hr in | rain 24hr in | rain mn in | humidity % | barometer mb |
| 20260507011852 | 54 | 0.0 | 0.0 | 0.00 | 0.00 | 0.00 | 99 | ||
| 20260507010847 | 54 | 0.0 | 0.0 | 0.00 | 0.00 | 0.00 | 99 | ||
| 20260507005845 | 54 | 0.0 | 0.0 | 0.00 | 0.00 | 0.00 | 99 | ||
| 20260507004841 | 54 | 0.0 | 0.0 | 0.00 | 0.00 | 0.00 | 99 | ||
| 20260507003839 | 54 | 0.0 | 0.0 | 0.00 | 0.00 | 0.00 | 99 | ||
| 20260507002836 | 54 | 0.0 | 0.0 | 0.00 | 0.00 | 0.00 | 99 | ||
| 20260507001834 | 54 | 0.0 | 0.0 | 0.00 | 0.00 | 0.00 | 99 | ||
| 20260507000831 | 55 | 0.0 | 0.0 | 0.00 | 0.00 | 0.00 | 99 | ||
| 20260506234826 | 55 | 0.0 | 0.0 | 0.00 | 0.00 | 0.00 | 99 | ||
| 20260506233824 | 55 | 0.0 | 0.0 | 0.00 | 0.00 | 0.00 | 99 | ||
| 20260506232822 | 55 | 0.0 | 0.0 | 0.00 | 0.00 | 0.00 | 99 | ||
| 20260506231819 | 55 | 0.0 | 0.0 | 0.00 | 0.00 | 0.00 | 98 | ||
| 20260506230818 | 55 | 0.0 | 0.0 | 0.00 | 0.00 | 0.00 | 98 | ||
| 20260506225814 | 56 | 0.0 | 0.0 | 0.00 | 0.00 | 0.00 | 98 | ||
| 20260506224812 | 56 | 0.0 | 0.0 | 0.00 | 0.00 | 0.00 | 98 | ||
| 20260506223809 | 56 | 0.0 | 0.0 | 0.00 | 0.00 | 0.00 | 98 | ||
| 20260506222807 | 55 | 0.0 | 0.0 | 0.00 | 0.00 | 0.00 | 99 | ||
| 20260506221804 | 55 | 0.0 | 0.0 | 0.00 | 0.00 | 0.00 | 99 | ||
| 20260506220802 | 55 | 0.0 | 0.0 | 0.00 | 0.00 | 0.00 | 99 | ||
| 20260506215800 | 55 | 0.0 | 0.0 | 0.00 | 0.00 | 0.00 | 99 | ||
| 20260506214757 | 55 | 0.0 | 0.0 | 0.00 | 0.00 | 0.00 | 99 | ||
| 20260506213754 | 55 | 0.0 | 0.0 | 0.00 | 0.00 | 0.00 | 99 | ||
| 20260506212752 | 55 | 0.0 | 0.0 | 0.00 | 0.00 | 0.00 | 98 | ||
| 20260506211750 | 56 | 0.0 | 0.0 | 0.00 | 0.00 | 0.00 | 98 | ||
| 20260506210747 | 56 | 0.0 | 0.0 | 0.00 | 0.00 | 0.00 | 96 | ||
| 20260506205745 | 55 | 0.0 | 0.0 | 0.00 | 0.00 | 0.00 | 96 | ||
| 20260506204742 | 56 | 0.0 | 0.0 | 0.00 | 0.00 | 0.00 | 95 | ||
| 20260506203740 | 56 | 0.0 | 0.0 | 0.00 | 0.00 | 0.00 | 95 | ||
| 20260506202737 | 56 | 0.0 | 0.0 | 0.00 | 0.00 | 0.00 | 95 | ||
| 20260506201735 | 57 | 0.0 | 0.0 | 0.00 | 0.00 | 0.00 | 95 | ||
| 20260506200731 | 58 | 0.0 | 0.0 | 0.00 | 0.00 | 0.00 | 92 | ||
| 20260506195729 | 59 | 0.0 | 0.0 | 0.00 | 0.00 | 0.00 | 93 | ||
| 20260506194726 | 60 | 0.0 | 0.0 | 0.00 | 0.00 | 0.00 | 89 | ||
| 20260506193724 | 60 | 0.0 | 0.0 | 0.00 | 0.00 | 0.00 | 86 | ||
| 20260506192721 | 61 | 0.0 | 0.0 | 0.00 | 0.00 | 0.00 | 85 | ||
| 20260506191719 | 62 | 0.0 | 0.0 | 0.00 | 0.00 | 0.00 | 84 | ||
| 20260506190716 | 62 | 0.0 | 0.0 | 0.00 | 0.00 | 0.00 | 83 | ||
| 20260506185716 | 63 | 0.0 | 0.0 | 0.00 | 0.00 | 0.00 | 81 | ||
| 20260506184712 | 64 | 0.0 | 0.0 | 0.00 | 0.00 | 0.00 | 80 | ||
| 20260506183709 | 64 | 0.0 | 0.0 | 0.00 | 0.00 | 0.00 | 80 | ||
| 20260506182707 | 64 | 0.0 | 0.0 | 0.00 | 0.00 | 0.00 | 79 | ||
| 20260506181704 | 65 | 0.0 | 0.0 | 0.00 | 0.00 | 0.00 | 77 | ||
| 20260506180702 | 66 | 0.0 | 0.0 | 0.00 | 0.00 | 0.00 | 76 | ||
| 20260506175659 | 67 | 0.0 | 0.0 | 0.00 | 0.00 | 0.00 | 74 | ||
| 20260506174657 | 68 | 0.0 | 0.0 | 0.00 | 0.00 | 0.00 | 74 | ||
| 20260506173654 | 68 | 0.0 | 0.0 | 0.00 | 0.00 | 0.00 | 73 | ||
| 20260506172652 | 70 | 0.0 | 0.0 | 0.00 | 0.00 | 0.00 | 70 | ||
| 20260506171649 | 72 | 0.0 | 0.0 | 0.00 | 0.00 | 0.00 | 67 | ||
| 20260506170647 | 78 | 0.0 | 0.0 | 0.00 | 0.00 | 0.00 | 62 | ||
| 20260506165644 | 82 | 0.0 | 0.0 | 0.00 | 0.00 | 0.00 | 60 | ||
| 20260506164642 | 82 | 0.0 | 0.0 | 0.00 | 0.00 | 0.00 | 59 | ||
| 20260506163640 | 80 | 0.0 | 0.0 | 0.00 | 0.00 | 0.00 | 61 | ||
| 20260506162637 | 86 | 0.0 | 0.0 | 0.00 | 0.00 | 0.00 | 57 | ||
| 20260506161635 | 84 | 0.0 | 0.0 | 0.00 | 0.00 | 0.00 | 59 | ||
| 20260506160632 | 85 | 0.0 | 0.0 | 0.00 | 0.00 | 0.00 | 58 | ||
| 20260506155630 | 83 | 0.0 | 0.0 | 0.00 | 0.00 | 0.00 | 59 | ||
| 20260506154627 | 82 | 0.0 | 0.0 | 0.00 | 0.00 | 0.00 | 60 | ||
| 20260506153625 | 74 | 0.0 | 0.0 | 0.00 | 0.00 | 0.00 | 67 | ||
| 20260506152623 | 74 | 0.0 | 0.0 | 0.00 | 0.00 | 0.00 | 67 | ||
| 20260506151620 | 76 | 0.0 | 0.0 | 0.00 | 0.00 | 0.00 | 67 | ||
| 20260506150617 | 78 | 0.0 | 0.0 | 0.00 | 0.00 | 0.00 | 65 | ||
| 20260506145615 | 73 | 0.0 | 0.0 | 0.00 | 0.00 | 0.00 | 69 | ||
| 20260506144613 | 72 | 0.0 | 0.0 | 0.00 | 0.00 | 0.00 | 71 | ||
| 20260506143609 | 71 | 0.0 | 0.0 | 0.00 | 0.00 | 0.00 | 70 | ||
| 20260506142606 | 72 | 0.0 | 0.0 | 0.00 | 0.00 | 0.00 | 70 | ||
| 20260506141604 | 71 | 0.0 | 0.0 | 0.00 | 0.00 | 0.00 | 70 | ||
| 20260506140602 | 73 | 0.0 | 0.0 | 0.00 | 0.00 | 0.00 | 68 | ||
| 20260506135559 | 73 | 0.0 | 0.0 | 0.00 | 0.00 | 0.00 | 67 | ||
| 20260506134557 | 74 | 0.0 | 0.0 | 0.00 | 0.00 | 0.00 | 67 | ||
| 20260506133554 | 74 | 0.0 | 0.0 | 0.00 | 0.00 | 0.00 | 66 | ||
| 20260506132552 | 77 | 0.0 | 0.0 | 0.00 | 0.00 | 0.00 | 64 | ||
| 20260506131549 | 74 | 0.0 | 0.0 | 0.00 | 0.00 | 0.00 | 66 | ||
| 20260506130547 | 72 | 0.0 | 0.0 | 0.00 | 0.00 | 0.00 | 68 | ||
| 20260506125544 | 71 | 0.0 | 0.0 | 0.00 | 0.00 | 0.00 | 69 | ||
| 20260506124542 | 70 | 0.0 | 0.0 | 0.00 | 0.00 | 0.00 | 70 | ||
| 20260506123539 | 70 | 0.0 | 0.0 | 0.00 | 0.00 | 0.00 | 70 | ||
| 20260506122536 | 71 | 0.0 | 0.0 | 0.00 | 0.00 | 0.00 | 70 | ||
| 20260506121534 | 71 | 0.0 | 0.0 | 0.00 | 0.00 | 0.00 | 70 | ||
| 20260506120531 | 71 | 0.0 | 0.0 | 0.00 | 0.00 | 0.00 | 69 | ||
| 20260506115529 | 72 | 0.0 | 0.0 | 0.00 | 0.00 | 0.00 | 70 | ||
| 20260506114527 | 73 | 0.0 | 0.0 | 0.00 | 0.00 | 0.00 | 68 | ||
| 20260506113524 | 73 | 0.0 | 0.0 | 0.00 | 0.00 | 0.00 | 69 | ||
| 20260506112521 | 72 | 0.0 | 0.0 | 0.00 | 0.00 | 0.00 | 67 | ||
| 20260506111518 | 72 | 0.0 | 0.0 | 0.00 | 0.00 | 0.00 | 69 | ||
| 20260506110516 | 72 | 0.0 | 0.0 | 0.00 | 0.00 | 0.00 | 67 | ||
| 20260506105513 | 72 | 0.0 | 0.0 | 0.00 | 0.00 | 0.00 | 70 | ||
| 20260506104511 | 71 | 0.0 | 0.0 | 0.00 | 0.00 | 0.00 | 71 | ||
| 20260506103508 | 71 | 0.0 | 0.0 | 0.00 | 0.00 | 0.00 | 72 | ||
| 20260506102506 | 70 | 0.0 | 0.0 | 0.00 | 0.00 | 0.00 | 71 | ||
| 20260506101503 | 71 | 0.0 | 0.0 | 0.00 | 0.00 | 0.00 | 71 | ||
| 20260506100501 | 71 | 0.0 | 0.0 | 0.00 | 0.00 | 0.00 | 72 | ||
| 20260506095458 | 69 | 0.0 | 0.0 | 0.00 | 0.00 | 0.00 | 73 | ||
| 20260506094456 | 68 | 0.0 | 0.0 | 0.00 | 0.00 | 0.00 | 72 | ||
| 20260506093453 | 69 | 0.0 | 0.0 | 0.00 | 0.00 | 0.00 | 74 | ||
| 20260506092451 | 69 | 0.0 | 0.0 | 0.00 | 0.00 | 0.00 | 72 | ||
| 20260506091448 | 68 | 0.0 | 0.0 | 0.00 | 0.00 | 0.00 | 74 | ||
| 20260506090446 | 68 | 0.0 | 0.0 | 0.00 | 0.00 | 0.00 | 75 | ||
| 20260506085443 | 67 | 0.0 | 0.0 | 0.00 | 0.00 | 0.00 | 74 | ||
| 20260506084441 | 68 | 0.0 | 0.0 | 0.00 | 0.00 | 0.00 | 75 | ||
| 20260506083438 | 68 | 0.0 | 0.0 | 0.00 | 0.00 | 0.00 | 76 | ||
| 20260506082436 | 66 | 0.0 | 0.0 | 0.00 | 0.00 | 0.00 | 77 | ||
| 20260506081433 | 67 | 0.0 | 0.0 | 0.00 | 0.00 | 0.00 | 77 | ||
| 20260506080431 | 65 | 0.0 | 0.0 | 0.00 | 0.00 | 0.00 | 80 | ||
| 20260506073424 | 63 | 0.0 | 0.0 | 0.00 | 0.00 | 0.00 | 83 | ||
| 20260506072421 | 63 | 0.0 | 0.0 | 0.00 | 0.00 | 0.00 | 83 | ||
| 20260506071419 | 62 | 0.0 | 0.0 | 0.00 | 0.00 | 0.00 | 86 | ||
| 20260506070416 | 61 | 0.0 | 0.0 | 0.00 | 0.00 | 0.00 | 86 | ||
| 20260506062407 | 60 | 0.0 | 0.0 | 0.00 | 0.00 | 0.00 | 90 | ||
| 20260506061404 | 59 | 0.0 | 0.0 | 0.00 | 0.00 | 0.00 | 90 | ||
| 20260506060401 | 58 | 0.0 | 0.0 | 0.00 | 0.00 | 0.00 | 93 | ||
| 20260506051349 | 51 | 0.0 | 0.0 | 0.00 | 0.00 | 0.00 | 99 | ||
| 20260506050347 | 50 | 0.0 | 0.0 | 0.00 | 0.00 | 0.00 | 99 | ||
| 20260506044342 | 49 | 0.0 | 0.0 | 0.00 | 0.00 | 0.00 | 99 | ||
| 20260506043339 | 48 | 0.0 | 0.0 | 0.00 | 0.00 | 0.00 | 99 | ||
| 20260506042337 | 48 | 0.0 | 0.0 | 0.00 | 0.00 | 0.00 | 99 | ||
| 20260506041334 | 48 | 0.0 | 0.0 | 0.00 | 0.00 | 0.00 | 99 | ||
| 20260506040332 | 48 | 0.0 | 0.0 | 0.00 | 0.00 | 0.00 | 99 | ||
| 20260506035329 | 48 | 0.0 | 0.0 | 0.00 | 0.00 | 0.00 | 99 | ||
| 20260506034327 | 48 | 0.0 | 0.0 | 0.00 | 0.00 | 0.00 | 99 | ||
| 20260506033324 | 48 | 0.0 | 0.0 | 0.00 | 0.00 | 0.00 | 99 | ||
| 20260506032322 | 48 | 0.0 | 0.0 | 0.00 | 0.00 | 0.00 | 99 | ||
| 20260506031319 | 48 | 0.0 | 0.0 | 0.00 | 0.00 | 0.00 | 99 | ||
| 20260506030317 | 49 | 0.0 | 0.0 | 0.00 | 0.00 | 0.00 | 99 | ||
| 20260506025315 | 49 | 0.0 | 0.0 | 0.00 | 0.00 | 0.00 | 99 | ||
| 20260506024312 | 49 | 0.0 | 0.0 | 0.00 | 0.00 | 0.00 | 99 | ||
| 20260506023310 | 50 | 0.0 | 0.0 | 0.00 | 0.00 | 0.00 | 99 | ||
| 20260506022307 | 50 | 0.0 | 0.0 | 0.00 | 0.00 | 0.00 | 99 | ||
| 20260506021305 | 50 | 0.0 | 0.0 | 0.00 | 0.00 | 0.00 | 99 | ||
| 20260506020302 | 51 | 0.0 | 0.0 | 0.00 | 0.00 | 0.00 | 99 | ||
| 20260506015300 | 51 | 0.0 | 0.0 | 0.00 | 0.00 | 0.00 | 99 | ||
| 20260506014257 | 52 | 0.0 | 0.0 | 0.00 | 0.00 | 0.00 | 99 | ||
| 20260506012252 | 53 | 0.0 | 0.0 | 0.00 | 0.00 | 0.00 | 99 |